Home > Weather > Gdańsk > Past weeks

Flag for Poland Weather for the Past 2 Weeks in Gdańsk, Poland

Now
36 °F

Fog.


Feels Like: 36 °F
Forecast: 37 / 40 °F
Wind: 2 mph from North

Location: Gdansk-Rebiechowo

Current Time: Feb 14, 2016 at 7:04:22 PM

Latest Report: Feb 14, 2016 at 6:30 PM


Visibility: 2 mi

Pressure: 29.42 "Hg

Humidity: 93%

Dew point: 34 °F

Location of GdańskLocation

Historic Weather in Gdańsk — Graph

°F

Gdańsk Temperature Yesterday

Maximum temperature yesterday: 36 °F (at 2:30 PM)
Minimum temperature yesterday: 23 °F (at 8:00 AM)
Average temperature yesterday: 32 °F

High & Low Weather Summary for the Past Weeks

 TemperatureHumidityPressure
High48 °F (Feb 7, 1:30 PM)100% (Feb 4, 2:00 AM)30.09 "Hg (Feb 4, 2:00 AM)
Low23 °F (Feb 13, 8:00 AM)53% (Feb 9, 3:30 PM)29.03 "Hg (Feb 10, 3:30 AM)
Average38 °F84%29.56 "Hg
* Reported Jan 30 6:00 PM — Feb 14 6:00 PM, Gdańsk, Weather by CustomWeather, © 2016

Note: Actual official high and low records may vary slightly from our data, if they occured in-between our weather recording intervals... More about our weather records

Advertising

Gdańsk Weather History for the Previous 24 Hours

 ConditionsComfort  
Time TempWeatherWind HumidityBarometerVisibility
6:00 PM
Sun, Feb 14
36 °FFog.1 mph93%29.39 "Hg2 mi
5:30 PM36 °FFog.1 mph93%29.39 "Hg2 mi
5:00 PM36 °FFog.2 mph93%29.39 "Hg2 mi
4:30 PM36 °FFog.3 mph93%29.36 "Hg2 mi
4:00 PM36 °FFog.3 mph93%29.36 "Hg2 mi
3:30 PM36 °FFog.5 mph93%29.36 "Hg2 mi
3:00 PM36 °FFog.5 mph93%29.36 "Hg3 mi
2:30 PM36 °FLow clouds.5 mph93%29.36 "Hg5 mi
2:00 PM36 °FLow clouds.6 mph93%29.33 "Hg4 mi
1:30 PM36 °FLow clouds.6 mph93%29.33 "Hg5 mi
1:00 PM36 °FLow clouds.5 mph93%29.33 "Hg4 mi
12:30 PM36 °FLow clouds.7 mph93%29.33 "Hg4 mi
12:00 PM36 °FBroken clouds.3 mph93%29.33 "Hg4 mi
11:30 AM36 °FLight rain. Fog.6 mph93%29.33 "Hg3 mi
11:00 AM36 °FLight rain. Broken clouds.7 mph93%29.33 "Hg4 mi
10:30 AM36 °FBroken clouds.6 mph93%29.33 "Hg4 mi
10:00 AM36 °FFog.5 mph93%29.33 "Hg2 mi
9:30 AM36 °FFog.6 mph93%29.33 "Hg2 mi
9:00 AM36 °FFog.5 mph93%29.33 "Hg2 mi
8:30 AM36 °FFog.5 mph93%29.33 "Hg3 mi
8:00 AM36 °FFog.7 mph93%29.33 "Hg3 mi
7:30 AM34 °FFog.6 mph93%29.33 "Hg3 mi
7:00 AM34 °FPassing clouds.9 mph93%29.33 "Hg4 mi
6:30 AM34 °FPassing clouds.7 mph93%29.33 "Hg5 mi
6:00 AM34 °FPartly cloudy.8 mph93%29.33 "Hg5 mi
5:30 AM34 °FPassing clouds.8 mph93%29.33 "Hg5 mi
5:00 AM34 °FPartly cloudy.8 mph93%29.33 "Hg5 mi
4:30 AM34 °FPassing clouds.3 mph93%29.36 "Hg5 mi
4:00 AM34 °FPassing clouds.3 mph93%29.36 "Hg4 mi
3:30 AM34 °FPassing clouds.2 mph93%29.36 "Hg4 mi
3:00 AM34 °FPassing clouds.1 mph93%29.36 "Hg4 mi
2:30 AM34 °FFog.3 mph93%29.36 "Hg3 mi
2:00 AM34 °FFog.2 mph93%29.36 "Hg2 mi
1:30 AM34 °FFog.2 mph93%29.36 "Hg2 mi
1:00 AM34 °FFog.2 mph93%29.39 "Hg2 mi
12:30 AM34 °FFog.3 mph93%29.39 "Hg2 mi
12:00 AM34 °FFog.2 mph93%29.39 "Hg2 mi
11:30 PM
Sat, Feb 13
34 °FFog.3 mph93%29.39 "Hg2 mi
10:30 PM34 °FFog.2 mph100%29.39 "Hg2 mi
10:00 PM34 °FFog.5 mph100%29.39 "Hg2 mi
9:30 PM34 °FFog.5 mph100%29.39 "Hg2 mi
9:00 PM36 °FFog.7 mph93%29.42 "Hg2 mi
8:30 PM34 °FFog.5 mph100%29.42 "Hg2 mi
8:00 PM34 °FFog.5 mph100%29.42 "Hg2 mi
7:30 PM34 °FFog.5 mph93%29.42 "Hg2 mi
7:00 PM32 °FIce fog.2 mph100%29.45 "Hg2 mi
Weather by CustomWeather, © 2016

See weather overviewHow to use our weather pages